Time,TemperatureF,DewpointF,PressureIn,WindDirection,WindDirectionDegrees,WindSpeedMPH,WindSpeedGustMPH,Humidity,HourlyPrecipIn,Conditions,Clouds,dailyrainin,SolarRadiationWatts/m^2,SoftwareType,DateUTC
2013-03-22 00:00:00,30.3,14.8,29.77,North,-999,0.0,0.0,52,0.00,,,0.00,0.00,VWS V14.01,2013-03-22 06:00:00,
2013-03-22 00:05:00,30.1,14.6,29.77,North,-999,0.0,0.0,52,0.00,,,0.00,0.00,VWS V14.01,2013-03-22 06:05:00,
2013-03-22 00:10:00,30.0,15.0,29.78,North,-999,0.0,0.0,53,0.00,,,0.00,0.00,VWS V14.01,2013-03-22 06:10:00,
2013-03-22 00:15:00,29.8,14.8,29.78,North,-999,0.0,0.0,53,0.00,,,0.00,0.00,VWS V14.01,2013-03-22 06:15:00,
2013-03-22 00:20:00,29.6,14.6,29.78,North,-999,0.0,0.0,53,0.00,,,0.00,0.00,VWS V14.01,2013-03-22 06:20:00,
2013-03-22 00:25:00,29.5,14.5,29.78,North,-999,0.0,0.0,53,0.00,,,0.00,0.00,VWS V14.01,2013-03-22 06:25:00,
2013-03-22 00:30:00,29.3,14.7,29.78,North,-999,3.0,3.0,54,0.00,,,0.00,0.00,VWS V14.01,2013-03-22 06:30:00,
2013-03-22 00:35:00,28.9,14.4,29.78,North,-999,4.0,6.0,54,0.00,,,0.00,0.00,VWS V14.01,2013-03-22 06:35:00,
2013-03-22 00:40:00,28.8,14.7,29.78,North,-999,0.0,0.0,55,0.00,,,0.00,0.00,VWS V14.01,2013-03-22 06:40:00,
2013-03-22 00:45:00,28.9,14.8,29.78,North,-999,9.0,11.0,55,0.00,,,0.00,0.00,VWS V14.01,2013-03-22 06:45:00,
2013-03-22 00:50:00,29.4,14.4,29.78,North,-999,0.0,10.0,53,0.00,,,0.00,0.00,VWS V14.01,2013-03-22 06:50:00,
2013-03-22 00:55:00,29.7,14.2,29.78,North,-999,1.0,10.0,52,0.00,,,0.00,0.00,VWS V14.01,2013-03-22 06:55:00,
2013-03-22 01:00:00,29.8,14.8,29.78,North,-999,0.0,7.0,53,0.00,,,0.00,0.00,VWS V14.01,2013-03-22 07:00:00,
2013-03-22 01:05:00,29.7,14.2,29.78,North,-999,0.0,7.0,52,0.00,,,0.00,0.00,VWS V14.01,2013-03-22 07:05:00,
2013-03-22 01:10:00,29.7,14.2,29.78,North,-999,0.0,0.0,52,0.00,,,0.00,0.00,VWS V14.01,2013-03-22 07:10:00,
2013-03-22 01:15:00,29.7,14.2,29.78,North,-999,0.0,2.0,52,0.00,,,0.00,0.00,VWS V14.01,2013-03-22 07:15:00,
2013-03-22 01:20:00,29.8,13.9,29.78,North,-999,0.0,1.0,51,0.00,,,0.00,0.00,VWS V14.01,2013-03-22 07:20:00,
2013-03-22 01:25:00,29.8,14.3,29.78,North,-999,0.0,1.0,52,0.00,,,0.00,0.00,VWS V14.01,2013-03-22 07:25:00,
2013-03-22 01:30:00,29.8,13.9,29.78,North,-999,0.0,1.0,51,0.00,,,0.00,0.00,VWS V14.01,2013-03-22 07:30:00,
2013-03-22 01:35:00,29.7,14.2,29.77,North,-999,0.0,1.0,52,0.00,,,0.00,0.00,VWS V14.01,2013-03-22 07:35:00,
2013-03-22 01:40:00,29.8,13.9,29.77,North,-999,0.0,0.0,51,0.00,,,0.00,0.00,VWS V14.01,2013-03-22 07:40:00,
2013-03-22 01:45:00,29.7,13.8,29.77,North,-999,0.0,0.0,51,0.00,,,0.00,0.00,VWS V14.01,2013-03-22 07:45:00,
2013-03-22 01:50:00,29.7,14.2,29.77,North,-999,0.0,0.0,52,0.00,,,0.00,0.00,VWS V14.01,2013-03-22 07:50:00,
2013-03-22 01:55:00,29.6,14.1,29.77,North,-999,0.0,0.0,52,0.00,,,0.00,0.00,VWS V14.01,2013-03-22 07:55:00,
2013-03-22 02:00:00,29.5,14.1,29.77,North,-999,0.0,0.0,52,0.00,,,0.00,0.00,VWS V14.01,2013-03-22 08:00:00,
2013-03-22 02:05:00,29.4,14.0,29.77,North,-999,0.0,0.0,52,0.00,,,0.00,0.00,VWS V14.01,2013-03-22 08:05:00,
2013-03-22 02:10:00,29.5,14.1,29.77,North,-999,0.0,0.0,52,0.00,,,0.00,0.00,VWS V14.01,2013-03-22 08:10:00,
2013-03-22 02:15:00,29.5,13.6,29.77,North,-999,0.0,0.0,51,0.00,,,0.00,0.00,VWS V14.01,2013-03-22 08:15:00,
2013-03-22 02:20:00,29.5,13.6,29.77,North,-999,0.0,0.0,51,0.00,,,0.00,0.00,VWS V14.01,2013-03-22 08:20:00,
2013-03-22 02:25:00,29.5,13.6,29.77,North,-999,0.0,0.0,51,0.00,,,0.00,0.00,VWS V14.01,2013-03-22 08:25:00,
2013-03-22 02:30:00,29.4,14.0,29.77,North,-999,0.0,0.0,52,0.00,,,0.00,0.00,VWS V14.01,2013-03-22 08:30:00,
2013-03-22 02:35:00,29.3,13.9,29.77,North,-999,0.0,0.0,52,0.00,,,0.00,0.00,VWS V14.01,2013-03-22 08:35:00,
2013-03-22 02:40:00,29.3,13.4,29.77,North,-999,0.0,0.0,51,0.00,,,0.00,0.00,VWS V14.01,2013-03-22 08:40:00,
2013-03-22 02:45:00,29.3,13.4,29.77,North,-999,0.0,0.0,51,0.00,,,0.00,0.00,VWS V14.01,2013-03-22 08:45:00,
2013-03-22 02:50:00,28.9,13.5,29.77,North,-999,3.0,4.0,52,0.00,,,0.00,0.00,VWS V14.01,2013-03-22 08:50:00,
2013-03-22 02:55:00,27.5,13.9,29.77,North,-999,7.0,7.0,56,0.00,,,0.00,0.00,VWS V14.01,2013-03-22 08:55:00,
2013-03-22 03:00:00,26.1,15.6,29.77,North,-999,6.0,7.0,64,0.00,,,0.00,0.00,VWS V14.01,2013-03-22 09:00:00,
2013-03-22 03:05:00,25.2,15.1,29.77,North,-999,6.0,7.0,65,0.00,,,0.00,0.00,VWS V14.01,2013-03-22 09:05:00,
2013-03-22 03:10:00,25.2,16.1,29.77,North,-999,7.0,8.0,68,0.00,,,0.00,0.00,VWS V14.01,2013-03-22 09:10:00,
2013-03-22 03:15:00,25.2,16.5,29.76,North,-999,4.0,8.0,69,0.00,,,0.00,0.00,VWS V14.01,2013-03-22 09:15:00,
2013-03-22 03:20:00,25.3,16.6,29.76,North,-999,6.0,7.0,69,0.00,,,0.00,0.00,VWS V14.01,2013-03-22 09:20:00,
2013-03-22 03:25:00,25.4,16.3,29.76,North,-999,7.0,7.0,68,0.00,,,0.00,0.00,VWS V14.01,2013-03-22 09:25:00,
2013-03-22 03:30:00,25.0,17.6,29.76,North,-999,6.0,9.0,73,0.00,,,0.00,0.00,VWS V14.01,2013-03-22 09:30:00,
2013-03-22 03:35:00,24.9,17.8,29.76,North,-999,7.0,9.0,74,0.00,,,0.00,0.00,VWS V14.01,2013-03-22 09:35:00,
2013-03-22 03:39:00,24.6,18.1,29.76,North,-999,9.0,10.0,76,0.00,,,0.00,0.00,VWS V14.01,2013-03-22 09:39:00,
2013-03-22 03:44:00,24.8,18.9,29.76,North,-999,7.0,10.0,78,0.00,,,0.00,0.00,VWS V14.01,2013-03-22 09:44:00,
2013-03-22 03:49:00,25.0,19.4,29.75,North,-999,6.0,7.0,79,0.00,,,0.00,0.00,VWS V14.01,2013-03-22 09:49:00,
2013-03-22 03:54:00,25.1,19.5,29.75,North,-999,5.0,8.0,79,0.00,,,0.00,0.00,VWS V14.01,2013-03-22 09:54:00,
2013-03-22 03:59:00,25.0,19.7,29.75,North,-999,6.0,7.0,80,0.00,,,0.00,0.00,VWS V14.01,2013-03-22 09:59:00,
2013-03-22 04:04:00,24.9,19.6,29.75,North,-999,5.0,7.0,80,0.00,,,0.00,0.00,VWS V14.01,2013-03-22 10:04:00,
2013-03-22 04:09:00,25.0,20.3,29.75,North,-999,5.0,6.0,82,0.00,,,0.00,0.00,VWS V14.01,2013-03-22 10:09:00,
2013-03-22 04:14:00,25.2,20.5,29.75,North,-999,4.0,7.0,82,0.00,,,0.00,0.00,VWS V14.01,2013-03-22 10:14:00,
2013-03-22 04:19:00,24.9,20.2,29.75,North,-999,5.0,6.0,82,0.00,,,0.00,0.00,VWS V14.01,2013-03-22 10:19:00,
2013-03-22 04:24:00,24.9,20.2,29.75,North,-999,5.0,7.0,82,0.00,,,0.00,0.00,VWS V14.01,2013-03-22 10:24:00,
2013-03-22 04:29:00,24.9,20.5,29.75,North,-999,6.0,8.0,83,0.00,,,0.00,0.00,VWS V14.01,2013-03-22 10:29:00,
2013-03-22 04:34:00,25.0,20.6,29.75,North,-999,5.0,9.0,83,0.00,,,0.00,0.00,VWS V14.01,2013-03-22 10:34:00,
2013-03-22 04:39:00,24.9,20.5,29.74,North,-999,7.0,9.0,83,0.00,,,0.00,0.00,VWS V14.01,2013-03-22 10:39:00,
2013-03-22 04:44:00,24.8,20.4,29.74,North,-999,6.0,9.0,83,0.00,,,0.00,0.00,VWS V14.01,2013-03-22 10:44:00,
2013-03-22 04:49:00,24.5,19.8,29.74,North,-999,5.0,7.0,82,0.00,,,0.00,0.00,VWS V14.01,2013-03-22 10:49:00,
2013-03-22 04:54:00,23.9,19.2,29.74,North,-999,6.0,7.0,82,0.00,,,0.00,0.00,VWS V14.01,2013-03-22 10:54:00,
2013-03-22 04:59:00,23.5,19.1,29.74,North,-999,5.0,6.0,83,0.00,,,0.00,0.00,VWS V14.01,2013-03-22 10:59:00,
2013-03-22 05:04:00,23.4,19.3,29.74,North,-999,4.0,6.0,84,0.00,,,0.00,0.00,VWS V14.01,2013-03-22 11:04:00,
2013-03-22 05:09:00,23.4,19.3,29.74,North,-999,5.0,7.0,84,0.00,,,0.00,0.00,VWS V14.01,2013-03-22 11:09:00,
2013-03-22 05:14:00,23.6,19.8,29.74,North,-999,6.0,7.0,85,0.00,,,0.00,0.00,VWS V14.01,2013-03-22 11:14:00,
2013-03-22 05:19:00,23.4,19.3,29.74,North,-999,6.0,7.0,84,0.00,,,0.00,0.00,VWS V14.01,2013-03-22 11:19:00,
2013-03-22 05:24:00,23.1,19.0,29.74,North,-999,6.0,9.0,84,0.00,,,0.00,0.00,VWS V14.01,2013-03-22 11:24:00,
2013-03-22 05:29:00,23.0,19.2,29.74,North,-999,6.0,8.0,85,0.00,,,0.00,0.00,VWS V14.01,2013-03-22 11:29:00,
2013-03-22 05:34:00,23.2,19.6,29.74,North,-999,9.0,10.0,86,0.00,,,0.00,0.00,VWS V14.01,2013-03-22 11:34:00,
2013-03-22 05:39:00,23.5,19.7,29.74,North,-999,6.0,7.0,85,0.00,,,0.00,0.00,VWS V14.01,2013-03-22 11:39:00,
2013-03-22 05:44:00,23.7,19.9,29.74,North,-999,7.0,9.0,85,0.00,,,0.00,0.00,VWS V14.01,2013-03-22 11:44:00,
2013-03-22 05:49:00,23.6,19.5,29.74,North,-999,5.0,6.0,84,0.00,,,0.00,0.00,VWS V14.01,2013-03-22 11:49:00,
2013-03-22 05:54:00,23.3,19.2,29.74,North,-999,5.0,7.0,84,0.00,,,0.00,0.00,VWS V14.01,2013-03-22 11:54:00,
2013-03-22 05:59:00,22.7,18.3,29.74,North,-999,6.0,6.0,83,0.00,,,0.00,0.00,VWS V14.01,2013-03-22 11:59:00,
2013-03-22 06:04:00,21.9,17.5,29.74,North,-999,4.0,6.0,83,0.00,,,0.00,0.00,VWS V14.01,2013-03-22 12:04:00,
2013-03-22 06:09:00,21.7,17.6,29.74,North,-999,5.0,6.0,84,0.00,,,0.00,0.00,VWS V14.01,2013-03-22 12:09:00,
2013-03-22 06:14:00,22.0,18.2,29.74,North,-999,5.0,7.0,85,0.00,,,0.00,0.00,VWS V14.01,2013-03-22 12:14:00,
2013-03-22 06:19:00,21.6,17.2,29.74,North,-999,0.0,0.0,83,0.00,,,0.00,0.00,VWS V14.01,2013-03-22 12:19:00,
2013-03-22 06:24:00,21.4,17.3,29.74,North,-999,0.0,0.0,84,0.00,,,0.00,0.00,VWS V14.01,2013-03-22 12:24:00,
2013-03-22 06:29:00,21.5,17.7,29.74,North,-999,0.0,0.0,85,0.00,,,0.00,0.00,VWS V14.01,2013-03-22 12:29:00,
2013-03-22 06:34:00,21.6,17.2,29.74,North,-999,0.0,0.0,83,0.00,,,0.00,0.00,VWS V14.01,2013-03-22 12:34:00,
2013-03-22 06:39:00,21.5,17.4,29.74,North,-999,0.0,0.0,84,0.00,,,0.00,0.00,VWS V14.01,2013-03-22 12:39:00,
2013-03-22 06:44:00,21.2,16.9,29.74,North,-999,0.0,0.0,83,0.00,,,0.00,0.00,VWS V14.01,2013-03-22 12:44:00,
2013-03-22 06:49:00,20.8,16.2,29.74,North,-999,0.0,0.0,82,0.00,,,0.00,0.00,VWS V14.01,2013-03-22 12:49:00,
2013-03-22 06:54:00,19.9,14.7,29.74,North,-999,5.0,6.0,80,0.00,,,0.00,0.00,VWS V14.01,2013-03-22 12:54:00,
2013-03-22 06:59:00,19.5,13.5,29.74,North,-999,5.0,5.0,77,0.00,,,0.00,0.00,VWS V14.01,2013-03-22 12:59:00,
2013-03-22 07:04:00,19.0,12.4,29.74,North,-999,4.0,6.0,75,0.00,,,0.00,0.00,VWS V14.01,2013-03-22 13:04:00,
2013-03-22 07:09:00,18.4,11.2,29.75,North,-999,5.0,5.0,73,0.00,,,0.00,0.00,VWS V14.01,2013-03-22 13:09:00,
2013-03-22 07:14:00,18.0,10.8,29.75,North,-999,5.0,6.0,73,0.00,,,0.00,0.00,VWS V14.01,2013-03-22 13:14:00,
2013-03-22 07:19:00,18.1,11.2,29.75,North,-999,8.0,9.0,74,0.00,,,0.00,5.00,VWS V14.01,2013-03-22 13:19:00,
2013-03-22 07:24:00,18.3,10.8,29.75,North,-999,6.0,9.0,72,0.00,,,0.00,9.00,VWS V14.01,2013-03-22 13:24:00,
2013-03-22 07:29:00,18.1,10.6,29.75,North,-999,5.0,6.0,72,0.00,,,0.00,12.00,VWS V14.01,2013-03-22 13:29:00,
2013-03-22 07:34:00,18.4,10.9,29.75,North,-999,5.0,8.0,72,0.00,,,0.00,16.00,VWS V14.01,2013-03-22 13:34:00,
2013-03-22 07:39:00,18.6,11.1,29.75,North,-999,8.0,9.0,72,0.00,,,0.00,25.00,VWS V14.01,2013-03-22 13:39:00,
2013-03-22 07:44:00,18.6,11.1,29.75,North,-999,5.0,9.0,72,0.00,,,0.00,37.00,VWS V14.01,2013-03-22 13:44:00,
2013-03-22 07:49:00,18.8,11.3,29.75,North,-999,0.0,0.0,72,0.00,,,0.00,56.00,VWS V14.01,2013-03-22 13:49:00,
2013-03-22 07:54:00,18.9,11.7,29.75,North,-999,0.0,0.0,73,0.00,,,0.00,58.00,VWS V14.01,2013-03-22 13:54:00,
2013-03-22 07:59:00,18.6,11.4,29.75,North,-999,0.0,0.0,73,0.00,,,0.00,69.00,VWS V14.01,2013-03-22 13:59:00,
2013-03-22 08:04:00,18.6,11.7,29.75,North,-999,0.0,0.0,74,0.00,,,0.00,98.00,VWS V14.01,2013-03-22 14:04:00,
2013-03-22 08:09:00,18.8,12.2,29.76,North,-999,0.0,0.0,75,0.00,,,0.00,74.00,VWS V14.01,2013-03-22 14:09:00,
2013-03-22 08:14:00,19.1,12.5,29.75,North,-999,0.0,0.0,75,0.00,,,0.00,90.00,VWS V14.01,2013-03-22 14:14:00,
2013-03-22 08:19:00,19.6,13.0,29.76,North,-999,0.0,0.0,75,0.00,,,0.00,125.00,VWS V14.01,2013-03-22 14:19:00,
2013-03-22 08:24:00,20.3,13.4,29.76,North,-999,0.0,0.0,74,0.00,,,0.00,93.00,VWS V14.01,2013-03-22 14:24:00,
2013-03-22 08:29:00,20.8,13.5,29.76,North,-999,0.0,0.0,73,0.00,,,0.00,74.00,VWS V14.01,2013-03-22 14:29:00,
2013-03-22 08:34:00,21.1,13.5,29.76,North,-999,0.0,0.0,72,0.00,,,0.00,97.00,VWS V14.01,2013-03-22 14:34:00,
2013-03-22 08:39:00,21.6,14.3,29.76,North,-999,0.0,0.0,73,0.00,,,0.00,204.00,VWS V14.01,2013-03-22 14:39:00,
2013-03-22 08:44:00,22.0,14.4,29.76,North,-999,0.0,0.0,72,0.00,,,0.00,160.00,VWS V14.01,2013-03-22 14:44:00,
2013-03-22 08:49:00,23.1,14.8,29.76,North,-999,0.0,1.0,70,0.00,,,0.00,149.00,VWS V14.01,2013-03-22 14:49:00,
2013-03-22 08:54:00,24.4,15.0,29.76,North,-999,4.0,4.0,67,0.00,,,0.00,250.00,VWS V14.01,2013-03-22 14:54:00,
2013-03-22 08:59:00,25.8,15.0,29.76,North,-999,0.0,0.0,63,0.00,,,0.00,276.00,VWS V14.01,2013-03-22 14:59:00,
2013-03-22 09:04:00,26.7,12.7,29.76,North,-999,3.0,6.0,55,0.00,,,0.00,290.00,VWS V14.01,2013-03-22 15:04:00,
2013-03-22 09:09:00,27.3,12.4,29.76,North,-999,6.0,8.0,53,0.00,,,0.00,311.00,VWS V14.01,2013-03-22 15:09:00,
2013-03-22 09:14:00,27.6,11.9,29.76,North,-999,10.0,12.0,51,0.00,,,0.00,325.00,VWS V14.01,2013-03-22 15:14:00,
2013-03-22 09:19:00,27.9,11.7,29.76,North,-999,14.0,15.0,50,0.00,,,0.00,341.00,VWS V14.01,2013-03-22 15:19:00,
2013-03-22 09:24:00,28.2,11.5,29.76,North,-999,12.0,15.0,49,0.00,,,0.00,357.00,VWS V14.01,2013-03-22 15:24:00,
2013-03-22 09:29:00,28.5,11.3,29.76,North,-999,10.0,12.0,48,0.00,,,0.00,373.00,VWS V14.01,2013-03-22 15:29:00,
2013-03-22 09:33:00,28.9,10.7,29.76,North,-999,15.0,16.0,46,0.00,,,0.00,390.00,VWS V14.01,2013-03-22 15:33:00,
2013-03-22 09:38:00,29.1,9.9,29.76,North,-999,13.0,15.0,44,0.00,,,0.00,403.00,VWS V14.01,2013-03-22 15:38:00,
2013-03-22 09:43:00,29.3,11.1,29.76,North,-999,7.0,16.0,46,0.00,,,0.00,417.00,VWS V14.01,2013-03-22 15:43:00,
2013-03-22 09:48:00,29.8,11.6,29.76,North,-999,16.0,17.0,46,0.00,,,0.00,432.00,VWS V14.01,2013-03-22 15:48:00,
2013-03-22 09:53:00,29.8,10.6,29.76,North,-999,13.0,19.0,44,0.00,,,0.00,445.00,VWS V14.01,2013-03-22 15:53:00,
2013-03-22 09:58:00,30.3,11.5,29.76,North,-999,10.0,10.0,45,0.00,,,0.00,457.00,VWS V14.01,2013-03-22 15:58:00,
2013-03-22 10:03:00,30.5,11.2,29.76,North,-999,12.0,19.0,44,0.00,,,0.00,468.00,VWS V14.01,2013-03-22 16:03:00,
2013-03-22 10:08:00,30.8,11.0,29.76,North,-999,17.0,18.0,43,0.00,,,0.00,480.00,VWS V14.01,2013-03-22 16:08:00,
2013-03-22 10:13:00,30.8,10.4,29.76,North,-999,18.0,21.0,42,0.00,,,0.00,492.00,VWS V14.01,2013-03-22 16:13:00,
2013-03-22 10:18:00,31.1,11.2,29.76,North,-999,17.0,20.0,43,0.00,,,0.00,504.00,VWS V14.01,2013-03-22 16:18:00,
2013-03-22 10:23:00,31.3,10.3,29.76,North,-999,15.0,22.0,41,0.00,,,0.00,517.00,VWS V14.01,2013-03-22 16:23:00,
2013-03-22 10:28:00,31.1,10.7,29.76,North,-999,16.0,19.0,42,0.00,,,0.00,531.00,VWS V14.01,2013-03-22 16:28:00,
2013-03-22 10:33:00,31.4,10.4,29.76,North,-999,7.0,23.0,41,0.00,,,0.00,541.00,VWS V14.01,2013-03-22 16:33:00,
2013-03-22 10:38:00,31.6,9.5,29.76,North,-999,14.0,20.0,39,0.00,,,0.00,554.00,VWS V14.01,2013-03-22 16:38:00,
2013-03-22 10:43:00,31.7,9.6,29.76,North,-999,15.0,20.0,39,0.00,,,0.00,568.00,VWS V14.01,2013-03-22 16:43:00,
2013-03-22 10:48:00,31.9,9.8,29.76,North,-999,12.0,13.0,39,0.00,,,0.00,580.00,VWS V14.01,2013-03-22 16:48:00,
2013-03-22 10:53:00,32.0,9.3,29.76,North,-999,15.0,18.0,38,0.00,,,0.00,592.00,VWS V14.01,2013-03-22 16:53:00,
2013-03-22 10:58:00,32.3,9.6,29.76,North,-999,10.0,18.0,38,0.00,,,0.00,601.00,VWS V14.01,2013-03-22 16:58:00,
2013-03-22 11:03:00,32.4,9.1,29.76,North,-999,6.0,18.0,37,0.00,,,0.00,615.00,VWS V14.01,2013-03-22 17:03:00,
2013-03-22 11:08:00,32.6,9.8,29.76,North,-999,16.0,20.0,38,0.00,,,0.00,629.00,VWS V14.01,2013-03-22 17:08:00,
2013-03-22 11:13:00,32.9,9.5,29.76,North,-999,11.0,21.0,37,0.00,,,0.00,682.00,VWS V14.01,2013-03-22 17:13:00,
2013-03-22 11:18:00,32.8,9.4,29.76,North,-999,14.0,19.0,37,0.00,,,0.00,640.00,VWS V14.01,2013-03-22 17:18:00,
2013-03-22 11:23:00,32.6,9.8,29.76,North,-999,13.0,21.0,38,0.00,,,0.00,680.00,VWS V14.01,2013-03-22 17:23:00,
2013-03-22 11:28:00,32.7,9.3,29.76,North,-999,9.0,14.0,37,0.00,,,0.00,687.00,VWS V14.01,2013-03-22 17:28:00,
2013-03-22 11:33:00,32.7,8.7,29.76,North,-999,15.0,26.0,36,0.00,,,0.00,701.00,VWS V14.01,2013-03-22 17:33:00,
2013-03-22 11:38:00,32.9,8.9,29.76,North,-999,11.0,12.0,36,0.00,,,0.00,710.00,VWS V14.01,2013-03-22 17:38:00,
2013-03-22 11:43:00,33.2,9.8,29.76,North,-999,10.0,22.0,37,0.00,,,0.00,754.00,VWS V14.01,2013-03-22 17:43:00,
2013-03-22 11:48:00,32.8,9.4,29.76,North,-999,16.0,16.0,37,0.00,,,0.00,241.00,VWS V14.01,2013-03-22 17:48:00,
2013-03-22 11:53:00,33.3,8.6,29.76,North,-999,6.0,21.0,35,0.00,,,0.00,816.00,VWS V14.01,2013-03-22 17:53:00,
2013-03-22 11:58:00,34.1,9.3,29.76,North,-999,14.0,14.0,35,0.00,,,0.00,819.00,VWS V14.01,2013-03-22 17:58:00,
2013-03-22 12:03:00,33.6,7.6,29.76,North,-999,14.0,25.0,33,0.00,,,0.00,278.00,VWS V14.01,2013-03-22 18:03:00,
2013-03-22 12:08:00,33.0,7.7,29.76,North,-999,15.0,16.0,34,0.00,,,0.00,281.00,VWS V14.01,2013-03-22 18:08:00,
2013-03-22 12:13:00,32.9,7.6,29.76,North,-999,17.0,18.0,34,0.00,,,0.00,214.00,VWS V14.01,2013-03-22 18:13:00,
2013-03-22 12:18:00,32.8,7.5,29.76,North,-999,11.0,16.0,34,0.00,,,0.00,199.00,VWS V14.01,2013-03-22 18:18:00,
2013-03-22 12:23:00,32.8,8.2,29.76,North,-999,10.0,20.0,35,0.00,,,0.00,232.00,VWS V14.01,2013-03-22 18:23:00,
2013-03-22 12:28:00,33.5,7.5,29.76,North,-999,18.0,20.0,33,0.00,,,0.00,793.00,VWS V14.01,2013-03-22 18:28:00,
2013-03-22 12:33:00,33.3,5.9,29.76,North,-999,9.0,20.0,31,0.00,,,0.00,251.00,VWS V14.01,2013-03-22 18:33:00,
2013-03-22 12:38:00,33.3,6.6,29.76,North,-999,10.0,13.0,32,0.00,,,0.00,304.00,VWS V14.01,2013-03-22 18:38:00,
2013-03-22 12:43:00,33.9,7.2,29.76,North,-999,5.0,20.0,32,0.00,,,0.00,383.00,VWS V14.01,2013-03-22 18:43:00,
2013-03-22 12:48:00,34.3,6.8,29.76,North,-999,16.0,16.0,31,0.00,,,0.00,271.00,VWS V14.01,2013-03-22 18:48:00,
2013-03-22 12:53:00,33.6,6.2,29.76,North,-999,13.0,27.0,31,0.00,,,0.00,232.00,VWS V14.01,2013-03-22 18:53:00,
2013-03-22 12:58:00,33.3,5.9,29.76,North,-999,4.0,5.0,31,0.00,,,0.00,246.00,VWS V14.01,2013-03-22 18:58:00,
2013-03-22 13:03:00,33.5,7.5,29.76,North,-999,17.0,26.0,33,0.00,,,0.00,227.00,VWS V14.01,2013-03-22 19:03:00,
2013-03-22 13:08:00,33.8,7.1,29.76,North,-999,18.0,19.0,32,0.00,,,0.00,258.00,VWS V14.01,2013-03-22 19:08:00,
2013-03-22 13:13:00,33.7,7.0,29.76,North,-999,17.0,19.0,32,0.00,,,0.00,710.00,VWS V14.01,2013-03-22 19:13:00,
2013-03-22 13:18:00,34.2,8.1,29.76,North,-999,10.0,21.0,33,0.00,,,0.00,865.00,VWS V14.01,2013-03-22 19:18:00,
2013-03-22 13:23:00,34.3,10.1,29.76,North,-999,17.0,26.0,36,0.00,,,0.00,251.00,VWS V14.01,2013-03-22 19:23:00,
2013-03-22 13:28:00,33.7,9.0,29.76,North,-999,14.0,26.0,35,0.00,,,0.00,260.00,VWS V14.01,2013-03-22 19:28:00,
2013-03-22 13:33:00,33.3,11.0,29.76,North,-999,22.0,27.0,39,0.00,,,0.00,339.00,VWS V14.01,2013-03-22 19:33:00,
2013-03-22 13:38:00,32.9,10.7,29.76,North,-999,12.0,27.0,39,0.00,,,0.00,483.00,VWS V14.01,2013-03-22 19:38:00,
2013-03-22 13:43:00,33.6,11.9,29.77,North,-999,18.0,20.0,40,0.00,,,0.00,338.00,VWS V14.01,2013-03-22 19:43:00,
2013-03-22 13:48:00,33.3,11.0,29.77,North,-999,17.0,24.0,39,0.00,,,0.00,267.00,VWS V14.01,2013-03-22 19:48:00,
2013-03-22 13:53:00,32.7,12.2,29.77,North,-999,9.0,29.0,42,0.00,,,0.00,445.00,VWS V14.01,2013-03-22 19:53:00,
2013-03-22 13:58:00,32.8,12.2,29.77,North,-999,18.0,29.0,42,0.00,,,0.00,524.00,VWS V14.01,2013-03-22 19:58:00,
2013-03-22 14:03:00,33.8,13.1,29.76,North,-999,14.0,24.0,42,0.00,,,0.00,329.00,VWS V14.01,2013-03-22 20:03:00,
2013-03-22 14:08:00,33.9,13.8,29.77,North,-999,10.0,24.0,43,0.00,,,0.00,452.00,VWS V14.01,2013-03-22 20:08:00,
2013-03-22 14:13:00,33.5,13.4,29.76,North,-999,12.0,25.0,43,0.00,,,0.00,193.00,VWS V14.01,2013-03-22 20:13:00,
2013-03-22 14:18:00,33.2,14.2,29.77,North,-999,14.0,25.0,45,0.00,,,0.00,225.00,VWS V14.01,2013-03-22 20:18:00,
2013-03-22 14:23:00,33.3,15.3,29.76,North,-999,11.0,26.0,47,0.00,,,0.00,264.00,VWS V14.01,2013-03-22 20:23:00,
2013-03-22 14:28:00,33.4,14.9,29.76,North,-999,17.0,26.0,46,0.00,,,0.00,791.00,VWS V14.01,2013-03-22 20:28:00,
2013-03-22 14:33:00,34.1,14.5,29.76,North,-999,19.0,27.0,44,0.00,,,0.00,847.00,VWS V14.01,2013-03-22 20:33:00,
2013-03-22 14:38:00,33.9,13.2,29.77,North,-999,16.0,27.0,42,0.00,,,0.00,851.00,VWS V14.01,2013-03-22 20:38:00,
2013-03-22 14:43:00,33.9,13.2,29.77,North,-999,19.0,26.0,42,0.00,,,0.00,281.00,VWS V14.01,2013-03-22 20:43:00,
2013-03-22 14:48:00,33.6,13.5,29.77,North,-999,22.0,28.0,43,0.00,,,0.00,357.00,VWS V14.01,2013-03-22 20:48:00,
2013-03-22 14:53:00,33.6,13.5,29.77,North,-999,15.0,24.0,43,0.00,,,0.00,216.00,VWS V14.01,2013-03-22 20:53:00,
2013-03-22 14:58:00,33.5,13.9,29.77,North,-999,17.0,27.0,44,0.00,,,0.00,207.00,VWS V14.01,2013-03-22 20:58:00,
2013-03-22 15:03:00,33.3,13.2,29.77,North,-999,9.0,28.0,43,0.00,,,0.00,251.00,VWS V14.01,2013-03-22 21:03:00,
2013-03-22 15:08:00,33.2,12.1,29.77,North,-999,14.0,28.0,41,0.00,,,0.00,320.00,VWS V14.01,2013-03-22 21:08:00,
2013-03-22 15:13:00,33.4,12.8,29.77,North,-999,13.0,26.0,42,0.00,,,0.00,295.00,VWS V14.01,2013-03-22 21:13:00,
2013-03-22 15:18:00,33.4,12.8,29.77,North,-999,18.0,26.0,42,0.00,,,0.00,294.00,VWS V14.01,2013-03-22 21:18:00,
2013-03-22 15:23:00,33.3,11.6,29.77,North,-999,18.0,26.0,40,0.00,,,0.00,281.00,VWS V14.01,2013-03-22 21:23:00,
2013-03-22 15:28:00,33.5,13.4,29.77,North,-999,20.0,26.0,43,0.00,,,0.00,279.00,VWS V14.01,2013-03-22 21:28:00,
2013-03-22 15:33:00,33.6,14.0,29.77,North,-999,19.0,24.0,44,0.00,,,0.00,274.00,VWS V14.01,2013-03-22 21:33:00,
2013-03-22 15:38:00,33.4,13.9,29.77,North,-999,23.0,27.0,44,0.00,,,0.00,290.00,VWS V14.01,2013-03-22 21:38:00,
2013-03-22 15:43:00,33.4,14.4,29.77,North,-999,15.0,25.0,45,0.00,,,0.00,299.00,VWS V14.01,2013-03-22 21:43:00,
2013-03-22 15:47:00,33.1,14.6,29.77,North,-999,13.0,25.0,46,0.00,,,0.00,308.00,VWS V14.01,2013-03-22 21:47:00,
2013-03-22 15:52:00,32.9,15.9,29.78,North,-999,13.0,30.0,49,0.00,,,0.00,309.00,VWS V14.01,2013-03-22 21:52:00,
2013-03-22 15:57:00,32.6,15.6,29.78,North,-999,24.0,30.0,49,0.00,,,0.00,290.00,VWS V14.01,2013-03-22 21:57:00,
2013-03-22 16:02:00,32.2,15.7,29.78,North,-999,17.0,32.0,50,0.00,,,0.00,279.00,VWS V14.01,2013-03-22 22:02:00,
2013-03-22 16:07:00,32.1,16.9,29.79,North,-999,24.0,32.0,53,0.00,,,0.00,257.00,VWS V14.01,2013-03-22 22:07:00,
2013-03-22 16:12:00,31.9,17.6,29.79,North,-999,23.0,29.0,55,0.00,,,0.00,237.00,VWS V14.01,2013-03-22 22:12:00,
2013-03-22 16:17:00,31.5,17.2,29.79,North,-999,20.0,29.0,55,0.00,,,0.00,225.00,VWS V14.01,2013-03-22 22:17:00,
2013-03-22 16:22:00,31.3,18.6,29.79,North,-999,18.0,26.0,59,0.00,,,0.00,218.00,VWS V14.01,2013-03-22 22:22:00,
2013-03-22 16:27:00,30.6,18.8,29.80,North,-999,16.0,27.0,61,0.00,,,0.00,216.00,VWS V14.01,2013-03-22 22:27:00,
2013-03-22 16:32:00,30.6,18.8,29.80,North,-999,21.0,26.0,61,0.00,,,0.00,213.00,VWS V14.01,2013-03-22 22:32:00,
2013-03-22 16:37:00,30.5,18.7,29.80,North,-999,22.0,27.0,61,0.00,,,0.00,204.00,VWS V14.01,2013-03-22 22:37:00,
2013-03-22 16:42:00,30.5,18.7,29.80,North,-999,20.0,25.0,61,0.00,,,0.00,192.00,VWS V14.01,2013-03-22 22:42:00,
2013-03-22 16:47:00,30.4,19.0,29.81,North,-999,17.0,26.0,62,0.00,,,0.00,174.00,VWS V14.01,2013-03-22 22:47:00,
2013-03-22 16:52:00,29.9,17.7,29.81,North,-999,24.0,25.0,60,0.00,,,0.00,195.00,VWS V14.01,2013-03-22 22:52:00,
2013-03-22 16:57:00,29.8,17.2,29.81,North,-999,12.0,25.0,59,0.00,,,0.00,192.00,VWS V14.01,2013-03-22 22:57:00,
2013-03-22 17:02:00,30.0,17.0,29.81,North,-999,20.0,26.0,58,0.00,,,0.00,185.00,VWS V14.01,2013-03-22 23:02:00,
2013-03-22 17:07:00,30.0,17.8,29.82,North,-999,20.0,28.0,60,0.00,,,0.00,169.00,VWS V14.01,2013-03-22 23:07:00,
2013-03-22 17:12:00,30.2,17.2,29.81,North,-999,21.0,26.0,58,0.00,,,0.00,174.00,VWS V14.01,2013-03-22 23:12:00,
2013-03-22 17:17:00,30.0,16.6,29.82,North,-999,19.0,27.0,57,0.00,,,0.00,174.00,VWS V14.01,2013-03-22 23:17:00,
2013-03-22 17:22:00,29.7,17.1,29.82,North,-999,25.0,27.0,59,0.00,,,0.00,169.00,VWS V14.01,2013-03-22 23:22:00,
2013-03-22 17:27:00,29.6,18.6,29.82,North,-999,18.0,27.0,63,0.00,,,0.00,151.00,VWS V14.01,2013-03-22 23:27:00,
2013-03-22 17:32:00,29.3,18.3,29.82,North,-999,21.0,25.0,63,0.00,,,0.00,148.00,VWS V14.01,2013-03-22 23:32:00,
2013-03-22 17:37:00,29.1,17.3,29.83,North,-999,20.0,26.0,61,0.00,,,0.00,144.00,VWS V14.01,2013-03-22 23:37:00,
2013-03-22 17:42:00,28.7,17.3,29.83,North,-999,15.0,27.0,62,0.00,,,0.00,137.00,VWS V14.01,2013-03-22 23:42:00,
2013-03-22 17:47:00,28.2,17.2,29.83,North,-999,19.0,27.0,63,0.00,,,0.00,130.00,VWS V14.01,2013-03-22 23:47:00,
2013-03-22 17:52:00,28.3,16.6,29.83,North,-999,18.0,24.0,61,0.00,,,0.00,118.00,VWS V14.01,2013-03-22 23:52:00,
2013-03-22 17:57:00,28.2,16.5,29.84,North,-999,17.0,24.0,61,0.00,,,0.00,104.00,VWS V14.01,2013-03-22 23:57:00,
2013-03-22 18:02:00,28.1,17.1,29.84,North,-999,14.0,19.0,63,0.00,,,0.00,93.00,VWS V14.01,2013-03-23 00:02:00,
2013-03-22 18:07:00,28.0,16.7,29.84,North,-999,21.0,21.0,62,0.00,,,0.00,83.00,VWS V14.01,2013-03-23 00:07:00,
2013-03-22 18:12:00,27.9,16.6,29.84,North,-999,17.0,23.0,62,0.00,,,0.00,74.00,VWS V14.01,2013-03-23 00:12:00,
2013-03-22 18:17:00,27.7,16.4,29.84,North,-999,9.0,23.0,62,0.00,,,0.00,67.00,VWS V14.01,2013-03-23 00:17:00,
2013-03-22 18:22:00,27.7,16.0,29.84,North,-999,21.0,21.0,61,0.00,,,0.00,63.00,VWS V14.01,2013-03-23 00:22:00,
2013-03-22 18:27:00,27.5,15.8,29.84,North,-999,18.0,22.0,61,0.00,,,0.00,58.00,VWS V14.01,2013-03-23 00:27:00,
2013-03-22 18:32:00,27.4,16.5,29.84,North,-999,14.0,21.0,63,0.00,,,0.00,49.00,VWS V14.01,2013-03-23 00:32:00,
2013-03-22 18:37:00,27.2,16.6,29.84,North,-999,15.0,22.0,64,0.00,,,0.00,44.00,VWS V14.01,2013-03-23 00:37:00,
2013-03-22 18:42:00,27.2,16.3,29.84,North,-999,22.0,22.0,63,0.00,,,0.00,39.00,VWS V14.01,2013-03-23 00:42:00,
2013-03-22 18:47:00,27.1,15.8,29.85,North,-999,19.0,23.0,62,0.00,,,0.00,33.00,VWS V14.01,2013-03-23 00:47:00,
2013-03-22 18:52:00,27.0,16.1,29.85,North,-999,12.0,22.0,63,0.00,,,0.00,28.00,VWS V14.01,2013-03-23 00:52:00,
2013-03-22 18:57:00,26.8,15.9,29.85,North,-999,12.0,24.0,63,0.00,,,0.00,23.00,VWS V14.01,2013-03-23 00:57:00,
2013-03-22 19:02:00,26.7,16.2,29.85,North,-999,18.0,21.0,64,0.00,,,0.00,16.00,VWS V14.01,2013-03-23 01:02:00,
2013-03-22 19:07:00,26.6,16.4,29.86,North,-999,16.0,21.0,65,0.00,,,0.00,12.00,VWS V14.01,2013-03-23 01:07:00,
2013-03-22 19:12:00,26.5,16.3,29.86,North,-999,17.0,22.0,65,0.00,,,0.00,9.00,VWS V14.01,2013-03-23 01:12:00,
2013-03-22 19:17:00,26.4,15.5,29.86,North,-999,16.0,22.0,63,0.00,,,0.00,5.00,VWS V14.01,2013-03-23 01:17:00,
2013-03-22 19:22:00,26.4,15.5,29.85,North,-999,11.0,23.0,63,0.00,,,0.00,0.00,VWS V14.01,2013-03-23 01:22:00,
2013-03-22 19:27:00,26.2,15.0,29.86,North,-999,15.0,23.0,62,0.00,,,0.00,0.00,VWS V14.01,2013-03-23 01:27:00,
2013-03-22 19:32:00,26.1,14.9,29.86,North,-999,16.0,23.0,62,0.00,,,0.00,0.00,VWS V14.01,2013-03-23 01:32:00,
2013-03-22 19:37:00,26.0,15.5,29.86,North,-999,19.0,25.0,64,0.00,,,0.00,0.00,VWS V14.01,2013-03-23 01:37:00,
2013-03-22 19:42:00,26.0,15.5,29.86,North,-999,14.0,24.0,64,0.00,,,0.00,0.00,VWS V14.01,2013-03-23 01:42:00,
2013-03-22 19:47:00,25.8,15.3,29.87,North,-999,11.0,24.0,64,0.00,,,0.00,0.00,VWS V14.01,2013-03-23 01:47:00,
2013-03-22 19:52:00,25.8,15.3,29.87,North,-999,14.0,19.0,64,0.00,,,0.00,0.00,VWS V14.01,2013-03-23 01:52:00,
2013-03-22 19:57:00,25.7,15.2,29.87,North,-999,17.0,21.0,64,0.00,,,0.00,0.00,VWS V14.01,2013-03-23 01:57:00,
2013-03-22 20:02:00,25.6,15.5,29.88,North,-999,12.0,19.0,65,0.00,,,0.00,0.00,VWS V14.01,2013-03-23 02:02:00,
2013-03-22 20:07:00,25.5,15.7,29.88,North,-999,12.0,19.0,66,0.00,,,0.00,0.00,VWS V14.01,2013-03-23 02:07:00,
2013-03-22 20:12:00,25.5,15.7,29.89,North,-999,13.0,16.0,66,0.00,,,0.00,0.00,VWS V14.01,2013-03-23 02:12:00,
2013-03-22 20:17:00,25.4,15.6,29.89,North,-999,13.0,17.0,66,0.00,,,0.00,0.00,VWS V14.01,2013-03-23 02:17:00,
2013-03-22 20:22:00,25.3,15.9,29.89,North,-999,11.0,17.0,67,0.00,,,0.00,0.00,VWS V14.01,2013-03-23 02:22:00,
2013-03-22 20:27:00,25.1,16.4,29.88,North,-999,9.0,20.0,69,0.00,,,0.00,0.00,VWS V14.01,2013-03-23 02:27:00,
2013-03-22 20:32:00,25.0,16.3,29.89,North,-999,15.0,19.0,69,0.00,,,0.00,0.00,VWS V14.01,2013-03-23 02:32:00,
2013-03-22 20:37:00,24.9,16.2,29.89,North,-999,13.0,19.0,69,0.00,,,0.00,0.00,VWS V14.01,2013-03-23 02:37:00,
2013-03-22 20:42:00,24.8,16.4,29.89,North,-999,12.0,19.0,70,0.00,,,0.00,0.00,VWS V14.01,2013-03-23 02:42:00,
2013-03-22 20:47:00,24.7,16.0,29.89,North,-999,12.0,21.0,69,0.00,,,0.00,0.00,VWS V14.01,2013-03-23 02:47:00,
2013-03-22 20:52:00,24.8,15.8,29.90,North,-999,11.0,18.0,68,0.00,,,0.00,0.00,VWS V14.01,2013-03-23 02:52:00,
2013-03-22 20:57:00,24.7,15.7,29.90,North,-999,8.0,18.0,68,0.00,,,0.00,0.00,VWS V14.01,2013-03-23 02:57:00,
2013-03-22 21:02:00,24.6,15.6,29.90,North,-999,0.0,15.0,68,0.00,,,0.00,0.00,VWS V14.01,2013-03-23 03:02:00,
2013-03-22 21:07:00,24.5,15.5,29.90,North,-999,9.0,15.0,68,0.00,,,0.00,0.00,VWS V14.01,2013-03-23 03:07:00,
2013-03-22 21:12:00,24.4,14.7,29.90,North,-999,9.0,15.0,66,0.00,,,0.00,0.00,VWS V14.01,2013-03-23 03:12:00,
2013-03-22 21:17:00,24.3,13.9,29.90,North,-999,17.0,22.0,64,0.00,,,0.00,0.00,VWS V14.01,2013-03-23 03:17:00,
2013-03-22 21:22:00,24.4,13.6,29.90,North,-999,15.0,21.0,63,0.00,,,0.00,0.00,VWS V14.01,2013-03-23 03:22:00,
2013-03-22 21:27:00,24.3,13.2,29.90,North,-999,12.0,25.0,62,0.00,,,0.00,0.00,VWS V14.01,2013-03-23 03:27:00,
2013-03-22 21:32:00,24.2,13.1,29.90,North,-999,12.0,19.0,62,0.00,,,0.00,0.00,VWS V14.01,2013-03-23 03:32:00,
2013-03-22 21:37:00,24.1,13.0,29.91,North,-999,12.0,19.0,62,0.00,,,0.00,0.00,VWS V14.01,2013-03-23 03:37:00,
2013-03-22 21:42:00,24.0,12.5,29.90,North,-999,13.0,18.0,61,0.00,,,0.00,0.00,VWS V14.01,2013-03-23 03:42:00,
2013-03-22 21:47:00,23.9,12.8,29.91,North,-999,14.0,18.0,62,0.00,,,0.00,0.00,VWS V14.01,2013-03-23 03:47:00,
2013-03-22 21:52:00,23.9,12.8,29.91,North,-999,14.0,24.0,62,0.00,,,0.00,0.00,VWS V14.01,2013-03-23 03:52:00,
2013-03-22 21:57:00,23.8,13.1,29.91,North,-999,14.0,24.0,63,0.00,,,0.00,0.00,VWS V14.01,2013-03-23 03:57:00,
2013-03-22 22:00:00,23.8,13.1,29.92,North,-999,11.0,23.0,63,0.00,,,0.00,0.00,VWS V14.01,2013-03-23 04:00:00,
2013-03-22 22:05:00,23.7,13.0,29.92,North,-999,10.0,23.0,63,0.00,,,0.00,0.00,VWS V14.01,2013-03-23 04:05:00,
2013-03-22 22:10:00,23.7,12.6,29.93,North,-999,8.0,12.0,62,0.00,,,0.00,0.00,VWS V14.01,2013-03-23 04:10:00,
2013-03-22 22:15:00,23.7,12.6,29.93,North,-999,2.0,12.0,62,0.00,,,0.00,0.00,VWS V14.01,2013-03-23 04:15:00,
2013-03-22 22:20:00,23.6,12.5,29.92,North,-999,3.0,8.0,62,0.00,,,0.00,0.00,VWS V14.01,2013-03-23 04:20:00,
2013-03-22 22:25:00,23.5,12.4,29.93,North,-999,9.0,11.0,62,0.00,,,0.00,0.00,VWS V14.01,2013-03-23 04:25:00,
2013-03-22 22:30:00,23.4,12.7,29.93,North,-999,12.0,12.0,63,0.00,,,0.00,0.00,VWS V14.01,2013-03-23 04:30:00,
2013-03-22 22:35:00,23.4,12.7,29.93,North,-999,10.0,12.0,63,0.00,,,0.00,0.00,VWS V14.01,2013-03-23 04:35:00,
2013-03-22 22:40:00,23.3,12.6,29.93,North,-999,5.0,13.0,63,0.00,,,0.00,0.00,VWS V14.01,2013-03-23 04:40:00,
2013-03-22 22:45:00,23.2,12.8,29.94,North,-999,6.0,13.0,64,0.00,,,0.00,0.00,VWS V14.01,2013-03-23 04:45:00,
2013-03-22 22:50:00,23.1,12.8,29.94,North,-999,8.0,11.0,64,0.00,,,0.00,0.00,VWS V14.01,2013-03-23 04:50:00,
2013-03-22 22:55:00,23.0,13.0,29.94,North,-999,8.0,12.0,65,0.00,,,0.00,0.00,VWS V14.01,2013-03-23 04:55:00,
2013-03-22 23:00:00,22.8,13.2,29.94,North,-999,9.0,11.0,66,0.00,,,0.00,0.00,VWS V14.01,2013-03-23 05:00:00,
2013-03-22 23:05:00,22.5,13.2,29.94,North,-999,13.0,15.0,67,0.00,,,0.00,0.00,VWS V14.01,2013-03-23 05:05:00,
2013-03-22 23:10:00,22.4,13.4,29.94,North,-999,12.0,14.0,68,0.00,,,0.00,0.00,VWS V14.01,2013-03-23 05:10:00,
2013-03-22 23:15:00,22.3,13.4,29.94,North,-999,9.0,14.0,68,0.00,,,0.00,0.00,VWS V14.01,2013-03-23 05:15:00,
2013-03-22 23:20:00,22.1,13.5,29.93,North,-999,14.0,14.0,69,0.00,,,0.00,0.00,VWS V14.01,2013-03-23 05:20:00,
2013-03-22 23:25:00,22.0,13.7,29.94,North,-999,9.0,17.0,70,0.00,,,0.00,0.00,VWS V14.01,2013-03-23 05:25:00,
2013-03-22 23:30:00,21.9,13.6,29.94,North,-999,11.0,16.0,70,0.00,,,0.00,0.00,VWS V14.01,2013-03-23 05:30:00,
2013-03-22 23:35:00,21.7,14.1,29.94,North,-999,11.0,18.0,72,0.00,,,0.00,0.00,VWS V14.01,2013-03-23 05:35:00,
2013-03-22 23:40:00,21.5,14.2,29.94,North,-999,10.0,14.0,73,0.00,,,0.00,0.00,VWS V14.01,2013-03-23 05:40:00,
2013-03-22 23:45:00,21.3,14.3,29.94,North,-999,7.0,15.0,74,0.00,,,0.00,0.00,VWS V14.01,2013-03-23 05:45:00,
2013-03-22 23:50:00,21.1,14.4,29.94,North,-999,6.0,11.0,75,0.00,,,0.00,0.00,VWS V14.01,2013-03-23 05:50:00,
2013-03-22 23:55:00,21.0,14.3,29.94,North,-999,10.0,14.0,75,0.00,,,0.00,0.00,VWS V14.01,2013-03-23 05:55:00,